Weather History for Mosby, MO

Change the Weather History Date:

Sunday, December 9, 2012

  Actual Average (KMKC) Record (KMKC)
Temperature  
Mean Temperature 32 °F -  
Max Temperature 42 °F 43 °F 59 °F (2008)
Min Temperature 23 °F 27 °F 1 °F (2005)
Degree Days  
Heating Degree Days 32    
Moisture  
Dew Point 30 °F    
Average Humidity 80    
Maximum Humidity 100    
Minimum Humidity 59    
Precipitation  
Precipitation 0.00 in - - ()
Sea Level Pressure  
Sea Level Pressure 29.93 in    
Wind  
Wind Speed 7 mph (NW)    
Max Wind Speed 20 mph    
Max Gust Speed 25 mph    
Visibility 7 miles    
Events Fog    
Averages and records for this station are not official NWS values.
T = Trace of Precipitation, MM = Missing Value Source: NWS Daily Summary

Daily Weather History Graph

Daily Weather History Graph

Search for Another Location

Airport:

Trip Planner

Search our weather history database for the weather conditions in past years. The results will help you decide how hot, cold, wet, or windy it might be!

Date:

Astronomy

Dec. 09, 2012 Rise Set
Actual Time 7:25 AM CST 4:53 PM CST
Civil Twilight 6:55 AM CST 5:23 PM CST
Nautical Twilight 6:22 AM CST 5:57 PM CST
Astronomical Twilight 5:49 AM CST 6:30 PM CST
Moon 3:00 AM CST (12/9) 2:00 PM CST (12/9)
Length of Visible Light 10h 28m
Length of Day
9h 28m
Waning Crescent, 18% of the Moon is Illuminated
Dec 9
Waning Crescent
Dec 13
New
Dec 19
First Quarter
Dec 28
Full
Jan 4
Last Quarter

Hourly Weather History & Observations

Time (CST) Temp. Windchill Dew Point Humidity Pressure Visibility Wind Dir Wind Speed Gust Speed Precip Events Conditions
12:15 AM 37.4 °F 31.4 °F 37.4 °F 100% 29.88 in 3.0 mi East 8.1 mph - N/A   Overcast
12:35 AM 37.4 °F 32.1 °F 37.4 °F 100% 29.87 in 3.0 mi East 6.9 mph - N/A   Overcast
12:55 AM 37.4 °F 34.9 °F 37.4 °F 100% 29.87 in 3.0 mi East 3.5 mph - N/A   Mist
1:15 AM 37.4 °F 33.8 °F 37.4 °F 100% 29.87 in 4.0 mi East 4.6 mph - N/A   Overcast
1:35 AM 39.2 °F 37.0 °F 37.4 °F 93% 29.86 in 4.0 mi ESE 3.5 mph - N/A   Overcast
1:55 AM 39.2 °F 37.0 °F 37.4 °F 93% 29.86 in 4.0 mi East 3.5 mph - N/A   Overcast
2:15 AM 39.2 °F - 37.4 °F 93% 29.85 in 3.0 mi Calm Calm - N/A   Overcast
2:35 AM 39.2 °F - 37.4 °F 93% 29.85 in 3.0 mi Calm Calm - N/A   Overcast
2:55 AM 39.2 °F - 37.4 °F 93% 29.85 in 3.0 mi Calm Calm - N/A   Overcast
3:15 AM 39.2 °F - 37.4 °F 93% 29.85 in 3.0 mi Calm Calm - N/A   Overcast
3:35 AM 39.2 °F - 37.4 °F 93% 29.85 in 2.5 mi Calm Calm - N/A   Overcast
3:55 AM 39.2 °F - 37.4 °F 93% 29.84 in 2.0 mi Calm Calm - N/A   Overcast
4:15 AM 39.2 °F 37.0 °F 37.4 °F 93% 29.83 in 2.0 mi North 3.5 mph - N/A   Overcast
4:35 AM 39.2 °F 37.0 °F 37.4 °F 93% 29.83 in 1.5 mi North 3.5 mph - N/A   Overcast
4:55 AM 39.2 °F 37.0 °F 39.2 °F 100% 29.83 in 1.0 mi North 3.5 mph - N/A   Overcast
5:15 AM 39.2 °F - 39.2 °F 100% 29.84 in 0.5 mi Calm Calm - N/A Fog Fog
5:35 AM 39.2 °F - 39.2 °F 100% 29.84 in 0.2 mi Calm Calm - N/A Fog Fog
5:55 AM 39.2 °F - 39.2 °F 100% 29.85 in 0.2 mi Calm Calm - N/A Fog Fog
6:15 AM 39.2 °F - 39.2 °F 100% 29.85 in 0.2 mi Calm Calm - N/A Fog Fog
6:35 AM 39.2 °F - 39.2 °F 100% 29.87 in 0.2 mi Calm Calm - N/A Fog Fog
6:55 AM 39.2 °F 37.0 °F 39.2 °F 100% 29.87 in 0.2 mi WNW 3.5 mph - N/A Fog Fog
7:15 AM 39.2 °F 34.2 °F 39.2 °F 100% 29.86 in 0.2 mi NW 6.9 mph - N/A Fog Fog
7:35 AM 39.2 °F 34.2 °F 39.2 °F 100% 29.87 in 1.2 mi NW 6.9 mph - N/A   Drizzle
7:55 AM 39.2 °F 35.9 °F 39.2 °F 100% 29.88 in 2.0 mi NW 4.6 mph - N/A   Overcast
8:15 AM 39.2 °F 35.9 °F 39.2 °F 100% 29.87 in 4.0 mi NW 4.6 mph - N/A   Overcast
8:35 AM 39.2 °F 35.0 °F 39.2 °F 100% 29.87 in 4.0 mi NW 5.8 mph - N/A   Overcast
8:55 AM 41.0 °F 37.1 °F 39.2 °F 93% 29.88 in 5.0 mi NW 5.8 mph - N/A   Overcast
9:15 AM 41.0 °F 36.4 °F 39.2 °F 93% 29.88 in 7.0 mi NW 6.9 mph - N/A   Unknown
9:35 AM 41.0 °F 35.2 °F 39.2 °F 93% 29.88 in 7.0 mi NW 9.2 mph - N/A   Overcast
9:55 AM 41.0 °F 37.1 °F 39.2 °F 93% 29.89 in 7.0 mi NW 5.8 mph - N/A   Overcast
10:35 AM 42.8 °F 37.5 °F 39.2 °F 87% 29.90 in 7.0 mi WNW 9.2 mph - N/A   Overcast
10:55 AM 42.8 °F 36.6 °F 39.2 °F 87% 29.90 in 7.0 mi WNW 11.5 mph - N/A   Overcast
11:15 AM 42.8 °F 36.6 °F 37.4 °F 81% 29.90 in 7.0 mi NW 11.5 mph - N/A   Overcast
11:35 AM 42.8 °F 37.5 °F 37.4 °F 81% 29.89 in 7.0 mi NW 9.2 mph - N/A   Overcast
11:55 AM 42.8 °F 36.2 °F 37.4 °F 81% 29.88 in 7.0 mi NW 12.7 mph 16.1 mph N/A   Overcast
12:15 PM 42.8 °F 36.6 °F 37.4 °F 81% 29.88 in 7.0 mi WNW 11.5 mph - N/A   Overcast
12:35 PM 42.8 °F 37.5 °F 35.6 °F 76% 29.90 in 10.0 mi NW 9.2 mph - N/A   Overcast
12:55 PM 41.0 °F 33.5 °F 35.6 °F 81% 29.90 in 10.0 mi WNW 13.8 mph 17.3 mph N/A   Overcast
1:15 PM 41.0 °F 33.9 °F 35.6 °F 81% 29.91 in 10.0 mi WNW 12.7 mph 18.4 mph N/A   Overcast
1:35 PM 41.0 °F 34.3 °F 33.8 °F 76% 29.90 in 10.0 mi WNW 11.5 mph 21.9 mph N/A   Overcast
1:55 PM 42.8 °F 35.4 °F 32.0 °F 66% 29.90 in 10.0 mi WNW 15.0 mph 20.7 mph N/A   Overcast
2:15 PM 41.0 °F 33.1 °F 32.0 °F 70% 29.90 in 10.0 mi WNW 15.0 mph 19.6 mph N/A   Scattered Clouds
2:35 PM 41.0 °F 33.1 °F 30.2 °F 65% 29.90 in 10.0 mi WNW 15.0 mph 25.3 mph N/A   Clear
2:55 PM 41.0 °F 33.9 °F 28.4 °F 61% 29.91 in 10.0 mi NNW 12.7 mph 24.2 mph N/A   Clear
3:15 PM 41.0 °F 32.8 °F 30.2 °F 65% 29.92 in 10.0 mi WNW 16.1 mph 21.9 mph N/A   Scattered Clouds
3:35 PM 37.4 °F 28.2 °F 26.6 °F 65% 29.93 in 10.0 mi WNW 16.1 mph 23.0 mph N/A   Scattered Clouds
3:55 PM 35.6 °F 27.5 °F 26.6 °F 70% 29.94 in 10.0 mi NW 11.5 mph 23.0 mph N/A   Clear
4:15 PM 33.8 °F 23.9 °F 23.0 °F 65% 29.96 in 10.0 mi WNW 15.0 mph 21.9 mph N/A   Clear
4:35 PM 33.8 °F 25.3 °F 21.2 °F 60% 29.97 in 10.0 mi WNW 11.5 mph - N/A   Clear
4:55 PM 32.0 °F 22.5 °F 21.2 °F 64% 29.98 in 10.0 mi WNW 12.7 mph 20.7 mph N/A   Clear
5:15 PM 32.0 °F 23.6 °F 19.4 °F 60% 30.00 in 10.0 mi WNW 10.4 mph 21.9 mph N/A   Clear
5:35 PM 30.2 °F 21.3 °F 19.4 °F 64% 30.01 in 10.0 mi WNW 10.4 mph - N/A   Clear
5:55 PM 30.2 °F 20.2 °F 17.6 °F 60% 30.02 in 10.0 mi WNW 12.7 mph 19.6 mph N/A   Clear
6:15 PM 30.2 °F 20.8 °F 17.6 °F 60% 30.01 in 10.0 mi WNW 11.5 mph 20.7 mph N/A   Clear
6:35 PM 30.2 °F 21.3 °F 17.6 °F 60% 30.02 in 10.0 mi WNW 10.4 mph 20.7 mph N/A   Clear
6:55 PM 30.2 °F 20.8 °F 17.6 °F 60% 30.03 in 10.0 mi NW 11.5 mph 19.6 mph N/A   Clear
7:15 PM 28.4 °F 17.5 °F 17.6 °F 64% 30.04 in 10.0 mi WNW 13.8 mph 19.6 mph N/A   Clear
7:35 PM 28.4 °F 18.5 °F 17.6 °F 64% 30.04 in 10.0 mi WNW 11.5 mph - N/A   Clear
7:55 PM 28.4 °F 16.6 °F 17.6 °F 64% 30.04 in 10.0 mi WNW 16.1 mph 20.7 mph N/A   Mostly Cloudy
8:15 PM 28.4 °F 15.8 °F 17.6 °F 64% 30.04 in 10.0 mi NW 18.4 mph 21.9 mph N/A   Scattered Clouds
8:35 PM 28.4 °F 17.0 °F 17.6 °F 64% 30.05 in 10.0 mi WNW 15.0 mph 20.7 mph N/A   Mostly Cloudy
8:55 PM 26.6 °F 13.1 °F 14.0 °F 59% 30.05 in 10.0 mi NW 19.6 mph 25.3 mph N/A   Mostly Cloudy
9:15 PM 24.8 °F 11.1 °F 14.0 °F 64% 30.06 in 10.0 mi NW 18.4 mph 24.2 mph N/A   Clear
9:35 PM 24.8 °F 13.4 °F 14.0 °F 64% 30.05 in 10.0 mi NW 12.7 mph 18.4 mph N/A   Clear
9:55 PM 23.0 °F 9.2 °F 14.0 °F 68% 30.06 in 10.0 mi NW 17.3 mph 25.3 mph N/A   Clear
10:15 PM 23.0 °F 9.6 °F 14.0 °F 68% 30.06 in 10.0 mi NW 16.1 mph 23.0 mph N/A   Clear
10:35 PM 23.0 °F 11.7 °F 14.0 °F 68% 30.06 in 10.0 mi WNW 11.5 mph 16.1 mph N/A   Clear
10:55 PM 23.0 °F 10.1 °F 14.0 °F 68% 30.06 in 10.0 mi WNW 15.0 mph 20.7 mph N/A   Clear
11:15 PM 23.0 °F 10.1 °F 14.0 °F 68% 30.07 in 10.0 mi NW 15.0 mph 21.9 mph N/A   Scattered Clouds
11:35 PM 23.0 °F 11.7 °F 14.0 °F 68% 30.07 in 10.0 mi WNW 11.5 mph 19.6 mph N/A   Mostly Cloudy
11:55 PM 23.0 °F 13.1 °F 14.0 °F 68% 30.06 in 10.0 mi WNW 9.2 mph 23.0 mph N/A   Overcast